OBJECT C, 64089

Orbit data source: Space-Track

You're viewing an Uncataloged Satellite

Recently launched and/or uncataloged satellites may have evolving metadata. Metadata may include but not limited to: Owner, Maufacturer, Bus, Motor, and Mission.

OBJECT C, 64089 is a Chinese satellite in SSO that was launched on Wed, 21 May 2025 UTC via a LIJIAN-1 launch vehicle from the Jiuquan Satellite Launch Center, China (JSC). Unknown objects in Earth's orbit typically refer to objects detected orbiting the Earth but have not yet been identified or cataloged. These objects could be anything from previously untracked satellites, spent rocket stages, debris from satellite collisions, or even natural meteoroids temporarily captured by Earth's gravity.

Loading next visibility...
Identifier
64089, 2025-108C
Orbit
SSO
Last TLE update
9 hours ago
Origin
Flag of CNCN / PRC
Manufacturer
Unknown
Mission
Operational Commercial Imaging
Bus & Motor
Unknown
Mass
Unknown
Launch date (UTC)
2025-05-21 (2 months ago)
Launch vehicle
LIJIAN-1
Launch site
Jiuquan Satellite Launch Center, China (JSC)
Object type
Unknown
Shape & HBR
Box, 0.5 m
Radar Cross Section
0.375 m², Medium (>0.1 m² and < 1m²)

Expand to show TLE details & history

TLE from 9 hours ago
0 OBJECT C
1 64089U 25108C   25192.14342681  .00003624  00000-0  20868-3 0  9993
2 64089  97.5059 267.1549 0019009 105.2117 255.1217 15.12904598  7671
Epoch: 2025-07-11T03:26Z
TLE epoch observation values (Epoch: 2025-07-11T03:26:32.076Z)
Latitude
-0.00008°
Longitude
-73.77832°
Altitude
533.82 km
Speed
7.594 km/s
True Right ascension
17h 48m 37s
True Declination
0° 00' 00"
Sunlit
Object was in full shadow at epoch
Visualization orbit readout
Latitude
45.95237°
Longitude
114.35654°
Altitude
523.01 km
Speed
7.613 km/s
Apparent Right ascension
09h 20m 46s
Apparent Declination
7° 07' 14"
Sunlit
Object is in daylight
Visualization observer readout
Local Sidereal Time
00:16:06
Azimuth
51.106° ENE
Elevation
-28.001°
Doppler factor
1
Orbital elements
Apogee altitude
537.448 km
Perigee altitude
511.206 km
Semi-major axis
6,902.464 km
Eccentricity
0.0019
Inclination
97.5059°
RAAN
267.1549°
Arg. of periapsis
105.2117°
True anomaly
Unknown
Mean anomaly
255.1217°
Eccentric anomaly
Unknown
Mean motion
3.78475 °/min
Orbital period
95.12 mins
BSTAR
0.00020868
Loading maneuver chart data...
Loading SW <> Apogee altitude chart data...
Loading historical data...
Loading historical data...
Loading historical data...
Loading historical data...
Loading historical data...
Loading historical data...
Loading historical data...
Other satellites on launch #108 in the year 2025 (2025-05-21 UTC)

OBJECT C Visibility forecast

Observer location: undefined°, undefined°

Span
Click to sort rows by Start time (UTC) header in descending order
Start Az.
Max El. time (UTC)
Max El. Az.
Max El.
End time (UTC)
End Az.
5 mins2025-07-11 18:17:58.757Z349.605° N2025-07-11 18:19:58.757Z299.424° NW34.203°2025-07-11 18:22:58.757Z218.949° SW
5 mins2025-07-12 04:58:58.757Z158.827° S2025-07-12 05:00:58.757Z98.495° ESE44.054°2025-07-12 05:03:58.757Z352.329° N
|